Location: Boiro
(42.6475°N, 8.8834°W)
Time: 14:22:39
(UTC+02:00)

Explorer 7 - Pass Details

Date: 29 June 2022
Orbit: 482 x 668 km, 50.3° (Epoch: 15 August)

Event Time Altitude Azimuth Distance (km) Brightness Sun altitude
Rises 06:15:45 0° 299° (WNW) 2,939 10.3 -7.4°
Reaches altitude 10° 06:18:14 10° 306° (NW) 2,002 9.5 -7.0°
Maximum altitude 06:22:39 46° 19° (NNE) 816 8.2 -6.4°
Drops below altitude 10° 06:26:49 10° 94° (E) 1,884 10.3 -5.8°
Sets 06:29:05 0° 100° (E) 2,746 11.0 -5.5°
